Location: ??
(35.8509°N, 139.5200°E)
Time: 10:15:07
(UTC+00:00)

Daily predictions for brighter satellites

Satellite Brightness Start Highest point End
(mag) Time Altitude Azimuth Time Altitude Azimuth Time Altitude Azimuth
ATLAS 3B R/B 4.2 18:37:48 10° SSE 18:43:14 30° ESE 18:48:50 10° NE
CZ-2C R/B 3.9 19:21:37 10° SE 19:26:41 40° ENE 19:31:38 10° N
Cosmos 2279 Rocket 4.1 19:23:33 10° N 19:29:45 73° E 19:35:56 10° SSE
Cosmos 1777 Rocket 4.4 19:25:54 10° S 19:31:01 62° ESE 19:36:11 10° NNE
Cosmos 1328 Rocket 3.8 19:33:18 50° NNE 19:34:15 67° E 19:38:32 10° SSE
SL-8 R/B 3.8 19:48:11 51° NNW 19:49:16 71° NE 19:54:02 10° ESE
Lacrosse 5 4.1 19:45:45 10° S 19:49:50 25° ESE 19:53:57 10° ENE
COSMO-SKYMED 1 3.0 19:45:55 10° SSE 19:50:11 60° ENE 19:53:55 13° N
Meteor 1-10 Rocket 4.2 19:45:25 10° N 19:50:58 79° E 19:56:32 10° SSE
Cosmos 1634 Rocket 4.2 19:50:59 38° WNW 19:52:20 44° W 19:58:08 10° SSW
Meteor 2-8 Rocket 4.4 19:46:59 10° N 19:53:09 89° E 19:59:14 10° S
Envisat 2.8 19:49:08 10° N 19:54:13 77° WNW 19:59:16 10° SSW
Cosmos 1408 Rocket 3.3 19:51:48 10° S 19:56:05 81° W 20:00:24 10° N
Cosmos 1340 Rocket 3.3 19:54:50 10° S 19:58:42 59° E 20:02:39 10° NNE
MOS 1-B Rocket 3.9 19:58:57 10° S 20:05:11 62° WSW 20:10:39 11° NNW
SJ-12 4.1 20:03:03 10° N 20:07:02 47° WNW 20:11:00 10° SSW
H-2A R/B 3.5 20:09:07 32° WSW 20:09:07 32° WSW 20:11:33 10° SSW
Cosmos 1743 Rocket 3.8 20:03:42 10° S 20:08:02 69° E 20:12:22 10° NNE
CZ-4B R/B 4.5 20:07:02 10° NNE 20:10:18 32° E 20:13:39 10° SSE
SJ 16-02 1.4 20:06:46 10° SSW 20:11:02 53° WNW 20:15:18 10° N
FALCON 9 R/B 4.2 19:55:04 24° W 20:12:30 74° SSW 20:19:42 10° ESE
ATLAS 5 CENTAUR R/B 2.5 20:13:33 25° NNW 20:13:33 25° NNW 20:16:13 10° N
SL-19 R/B 4.3 20:08:23 10° S 20:13:51 57° WSW 20:19:22 10° NNW
SKYMED 3 4.5 20:09:58 10° S 20:14:16 70° WSW 20:18:19 12° NNW
NOAA 11 4.4 20:09:16 10° NNE 20:14:45 73° ESE 20:20:14 10° S
SL-27 R/B 2.3 20:15:18 30° NNW 20:16:55 70° WSW 20:20:21 10° S
Meteor 1-31 Rocket 3.0 20:17:15 10° N 20:20:59 44° WNW 20:24:43 10° SSW
Cosmos 1515 Rocket 3.4 20:17:08 10° NNW 20:21:26 65° W 20:25:41 10° S
OAO 2 Rocket 3.8 20:19:42 15° WSW 20:24:00 60° SSE 20:29:03 10° E
SL-4 R/B 1.9 20:26:19 26° W 20:27:53 47° NW 20:31:24 10° NE
Cosmos 2228 Rocket 4.1 20:24:25 10° N 20:28:48 48° E 20:33:12 10° SSE
ATLAS 3B R/B 2.9 20:27:24 10° SW 20:33:35 45° NW 20:40:03 10° NNE
Sich 1 3.5 20:30:14 10° S 20:34:26 63° E 20:38:40 10° NNE
Cosmos 1500 Rocket 3.7 20:30:25 10° SSW 20:34:45 52° W 20:39:08 10° N
Cosmos 1939 Rocket 3.7 20:32:10 10° NNE 20:35:58 51° E 20:39:41 10° S
SKYMED 2 4.2 20:34:18 10° SSW 20:38:16 35° W 20:42:16 10° NNW
Cosmos 2026 Rocket 4.2 20:32:23 10° S 20:38:42 77° E 20:44:59 10° N
DELTA 2 R/B (1) 3.7 20:35:59 18° WNW 20:40:09 67° N 20:45:41 10° E
Cosmos 2195 Rocket 4.4 20:37:19 10° S 20:43:26 82° W 20:49:34 10° N
Cosmos 1602 3.6 20:41:02 10° SSW 20:44:47 64° W 20:48:34 10° N
BREEZE-M DEB (TANK) 4.4 20:34:21 12° NW 20:46:20 39° WSW 20:50:52 10° S
H-2A R/B 3.0 20:42:27 10° SSE 20:46:34 51° ENE 20:50:50 10° N
Cosmos 1805 Rocket 3.5 20:43:03 10° SSW 20:47:23 67° W 20:51:45 10° N
Meteor PRIRODA 3.7 20:49:26 10° N 20:52:58 50° WNW 20:56:29 10° SSW
Cosmos 1607 4.4 20:47:43 10° NNW 20:53:53 62° ENE 20:59:56 10° SE
Meteor 1-27 Rocket 4.1 20:48:30 10° NNW 20:53:56 46° W 20:59:27 10° SSW
Cosmos 1500 3.1 20:50:22 10° S 20:54:10 81° W 20:57:58 10° N
EO 1 Delta rocket 4.5 20:50:47 10° NNE 20:56:26 70° E 21:01:09 10° S
NOAA 12 4.1 20:55:01 10° N 21:00:15 69° WNW 21:05:25 10° SSW
Cosmos 1538 Rocket 4.0 20:57:17 10° NNW 21:02:27 64° WSW 21:07:32 10° S
USA 215 3.8 20:56:45 10° ESE 21:03:03 54° NE 21:09:23 10° NW
Cosmos 2297 Rocket 3.2 20:58:29 10° N 21:03:55 46° ENE 21:09:19 10° SE
ADEOS 4.2 21:00:55 10° N 21:05:32 33° WNW 21:10:08 10° SW
COSMOS 2487 2.8 21:03:09 10° NNW 21:06:18 39° WSW 21:09:26 10° S
CZ-2C R/B 3.8 21:02:49 10° SW 21:07:02 23° W 21:11:11 10° NW
ASTRO E2 4.2 21:05:38 10° SW 21:09:14 34° SSE 21:12:50 10° ESE
Cosmos 1515 4.2 21:07:19 10° NNW 21:10:51 37° W 21:14:22 10° SSW
AQUARIUS 4.2 21:07:12 10° NNE 21:11:43 87° W 21:16:12 10° SSW
PSLV R/B 4.2 21:10:35 10° NNE 21:14:35 73° E 21:18:38 10° S
Meteor 1-14 Rocket 4.4 21:10:20 10° S 21:15:51 79° E 21:21:29 10° N
